Portland Hillsboro, OR

7:27 AM PDT on April 30, 2017 (GMT -0700)
Portland-Hillsboro

Weather History for KHIO - August, 2014

Change the Weather History Date:

Tuesday, August 26, 2014

  Actual Average Record
Temperature  
Mean Temperature 75 °F 65 °F  
Max Temperature 93 °F 80 °F 100 °F (1986)
Min Temperature 56 °F 49 °F 39 °F (1955)
Degree Days  
Heating Degree Days 0 2  
Month to date heating degree days 3 40  
Since 1 July heating degree days 9 96  
Cooling Degree Days 10 2  
Month to date cooling degree days 157 70  
Year to date cooling degree days 335 171  
Growing Degree Days 24 (Base 50)    
Moisture  
Dew Point 53 °F    
Average Humidity 52    
Maximum Humidity 80    
Minimum Humidity 23    
Precipitation  
Precipitation 0.00 in 0.02 in 0.29 in (1941)
Month to date precipitation 0.10 0.51  
Year to date precipitation 20.20 21.95  
Snow  
Snow 0.00 in - - ()
Month to date snowfall 0.0  
Since 1 June snowfall 0.0  
Since 1 July snowfall 0.0  
Snow Depth 0.00 in    
Sea Level Pressure  
Sea Level Pressure 29.96 in    
Wind  
Wind Speed 5 mph (NNW)    
Max Wind Speed 13 mph    
Max Gust Speed 16 mph    
Visibility 10 miles    
Events      
T = Trace of Precipitation, MM = Missing Value Source: NWS Daily Summary

Daily Weather History Graph

Daily Weather History Graph

Search for Another Location

Airport or City:

Trip Planner

Search our weather history database for the weather conditions in past years. The results will help you decide how hot, cold, wet, or windy it might be!

Date:

Astronomy

Aug. 26, 2014 Rise Set
Actual Time 6:25 AM PDT 8:00 PM PDT
Civil Twilight 5:54 AM PDT 8:31 PM PDT
Nautical Twilight 5:16 AM PDT 9:08 PM PDT
Astronomical Twilight 4:36 AM PDT 9:49 PM PDT
Moon 7:37 AM PDT (8/26) 8:17 PM PDT (8/26)
Length of Visible Light 14h 36m
Length of Day
13h 34m
New Moon, 1% of the Moon is Illuminated
Aug 26
New Moon
Sep 2
First Quarter
Sep 8
Full
Sep 15
Last Quarter
Sep 23
New

Hourly Weather History & Observations

Time (PDT) Temp. Heat Index Dew Point Humidity Pressure Visibility Wind Dir Wind Speed Gust Speed Precip Events Conditions
12:53 AM 66.9 °F - 52.0 °F 59% 29.95 in 10.0 mi WNW 6.9 mph - N/A   Clear
2:53 AM 64.9 °F - 51.1 °F 61% 29.96 in 10.0 mi NW 3.5 mph - N/A   Clear
3:53 AM 61.0 °F - 52.0 °F 72% 29.96 in 10.0 mi Calm Calm - N/A   Clear
5:53 AM 57.0 °F - 51.1 °F 81% 29.99 in 10.0 mi Calm Calm - N/A   Clear
6:53 AM 57.9 °F - 52.0 °F 81% 29.99 in 10.0 mi Calm Calm - N/A   Clear
7:53 AM 66.0 °F - 54.0 °F 65% 30.01 in 10.0 mi Calm Calm - N/A   Clear
8:53 AM 70.0 °F - 54.0 °F 57% 30.01 in 10.0 mi Calm Calm - N/A   Clear
9:53 AM 75.9 °F - 53.1 °F 45% 30.01 in 10.0 mi Variable 3.5 mph - N/A   Clear
10:53 AM 78.1 °F - 55.0 °F 45% 30.01 in 10.0 mi Calm Calm - N/A   Clear
11:53 AM 82.9 °F 82.0 °F 55.0 °F 38% 30.00 in 10.0 mi North 5.8 mph - N/A   Clear
12:53 PM 84.9 °F 83.6 °F 55.0 °F 36% 29.99 in 10.0 mi Calm Calm - N/A   Clear
2:53 PM 90.0 °F - 50.0 °F 25% 29.95 in 10.0 mi Variable 4.6 mph - N/A   Clear
3:53 PM 91.9 °F 89.5 °F 53.1 °F 27% 29.94 in 7.0 mi ENE 5.8 mph - N/A   Clear
4:53 PM 91.9 °F - 48.9 °F 23% 29.93 in 10.0 mi NE 9.2 mph - N/A   Clear
5:53 PM 91.0 °F - 48.9 °F 23% 29.92 in 10.0 mi NE 11.5 mph - N/A   Clear
6:53 PM 89.1 °F 86.7 °F 53.1 °F 29% 29.91 in 10.0 mi NNW 11.5 mph - N/A   Clear
7:53 PM 82.9 °F 81.8 °F 53.1 °F 36% 29.92 in 10.0 mi NW 9.2 mph - N/A   Clear
8:53 PM 78.1 °F - 55.0 °F 45% 29.94 in 10.0 mi NW 9.2 mph - N/A   Clear
9:53 PM 75.9 °F - 54.0 °F 46% 29.94 in 10.0 mi NW 10.4 mph - N/A   Clear
10:53 PM 75.0 °F - 52.0 °F 44% 29.95 in 10.0 mi NW 10.4 mph - N/A   Clear
11:53 PM 71.1 °F - 51.1 °F 49% 29.95 in 10.0 mi NW 6.9 mph - N/A   Clear